Regional Weather Roundup
Issued by NWS

Home | Current Version | Previous Version | Text Only | Print | Product List | Glossary On
Versions: 1 2 3 4 5 6 7 8 9 10 11 12 13 14 15 16 17 18 19 20 21 22 23 24 25 26 27 28 29 30 31 32 33 34 35 36 37 38 39 40 41 42 43 44 45 46 47 48 49 50
000
ASUS43 KTOP 202308
RWRKS

WEATHER ROUNDUP FOR KANSAS
NATIONAL WEATHER SERVICE GOODLAND KS
600 PM CDT SUN APR 20 2014

NOTE:  "FAIR" INDICATES FEW OR NO CLOUDS BELOW 12,000 FEET WITH NO
SIGNIFICANT WEATHER AND/OR OBSTRUCTIONS TO VISIBILITY.

KSZ001>006-013>018-027>032-041>047-210000-
NORTHWEST KANSAS

CITY           SKY/WX    TMP DP  RH WIND       PRES   REMARKS
GOODLAND       PTSUNNY   75  45  34 N12       29.93S
HAYS           PTSUNNY   73  54  49 SE20      29.90S
HILL CITY      TSTM      61  53  75 CALM      29.89F
RUSSELL        PTSUNNY   76  54  46 S25G31    29.90F
$$

KSZ061>065-074>080-084>089-210000-
SOUTHWEST KANSAS

CITY           SKY/WX    TMP DP  RH WIND       PRES   REMARKS
DODGE CITY     PTSUNNY   69  53  56 S22G33    29.92R
ELKHART          N/A     65  50  58 SW9         N/A
GARDEN CITY    PTSUNNY   79  41  25 S13G22    29.87F
GREAT BEND     PTSUNNY   73  52  46 SE24      29.91F
LIBERAL        PTSUNNY   72  48  43 S15       29.91F
PRATT          MOSUNNY   70  54  56 S20G29    29.97R
$$

KSZ066>073-081>083-090>101-210000-
SOUTHEAST KANSAS

CITY           SKY/WX    TMP DP  RH WIND       PRES   REMARKS
CHANUTE        CLOUDY    73  54  51 S9        30.04F
COFFEYVILLE    CLOUDY    72  54  53 S12       30.03F
HUTCHINSON     PTSUNNY   70  58  65 SE21G26   29.97F
MEDICINE LODGE   N/A     74  57  55 S15G25    29.94F
NEWTON         PTSUNNY   68  55  64 SE13      30.03F
PARSONS        PTSUNNY   74  53  48 S8        30.05F
WICHITA INTL   PTSUNNY   73  56  54 S15       29.99F
WICHITA JABRA  PTSUNNY   71  57  61 SE13      29.99F
WICHITA MCCONL MOSUNNY   72  60  64 SE12      30.00F
WINFIELD       PTSUNNY   74  55  51 S17       30.00F
$$

KSZ007>012-019>026-033>040-048>060-102>105-210000-
NORTHEAST KANSAS

CITY           SKY/WX    TMP DP  RH WIND       PRES   REMARKS
CONCORDIA      CLOUDY    71  55  56 S17G26    29.94F
EMPORIA        CLOUDY    67  58  72 S12       30.01F
LAWRENCE       CLOUDY    76  55  48 SW9       29.99F
MANHATTAN      CLOUDY    69  56  62 SW14G23   29.98F
OLATHE IND     CLOUDY    74  52  46 S16       30.02F
OLATHE EXE     CLOUDY    73  53  49 S12       30.01F
SALINA         CLOUDY    71  55  56 S18       29.96F
TOPEKA BILLARD CLOUDY    72  56  57 SW9       30.00S
TOPEKA FORBES  CLOUDY    71  55  56 SW14      30.00S
$$



USA.gov is the U.S. government's official web portal to all federal, state and local government web resources and services.